KWANGJEOK current weather conditions

sailwx.info

Wind from 210 at 1 knots

Air temperature -4.0° C
Visibility: greater than 5.4 NM
Dewpoint -14.0° C

Last reported at 2015-Jan-27 10:30 UTC.
Time now 2015-Jan-27 12:30 UTC

Location: N 37°48' E 126°58'.
View on Google Maps.

See reports from other nearby stations

  
Tides and Currents Weather Stations Pressure Air Temp Water Temp Dewpoint Dewpoint Depression Visibility Wind Speed Wind Dir Waves Ship Positions
date/time (UTC)wind fromknots sea level pressurealtimeterstation pressurevisibilityair tempwater tempwave heightnotes
2015-Jan-27 11:40 190 5 5.4-6.0
2015-Jan-27 11:30 210 3 5.4-5.0
2015-Jan-27 11:20 180 2 5.4-5.0
2015-Jan-27 11:10 190 1 5.4-5.0
2015-Jan-27 11:00 160 3 5.4-5.0
2015-Jan-27 10:50 190 5 5.4-5.0
2015-Jan-27 10:30 210 1 5.4-4.0
2015-Jan-27 10:20 220 2 5.4-4.0
2015-Jan-27 10:10 180 3 5.4-4.0
2015-Jan-27 10:00 150 1 5.4-4.0
2015-Jan-27 09:50 110 1 5.4-4.0
2015-Jan-27 09:40 200 1 5.4-3.0
2015-Jan-27 09:30 200 1 5.4-3.0
2015-Jan-27 09:20 180 3 5.4-3.0
2015-Jan-27 09:10 200 2 5.4-3.0
2015-Jan-27 09:00 190 1 5.4-3.0
2015-Jan-27 08:50 130 1 5.4-2.0
2015-Jan-27 08:40 170 1 5.4-2.0
2015-Jan-27 08:30 100 1 5.4-2.0
2015-Jan-27 08:20 230 2 5.4-2.0
2015-Jan-27 08:10 190 4 5.4-2.0
2015-Jan-27 08:00 170 3 5.4-2.0
2015-Jan-27 07:50 180 7 5.4-2.0
2015-Jan-27 07:40 200 6 5.4-1.0
2015-Jan-27 07:30 190 1 5.4-1.0
2015-Jan-27 07:20 170 5 5.4-1.0
2015-Jan-27 07:10 180 5 gusting 11 5.4-1.0
2015-Jan-27 07:00 180 4 5.4-1.0
2015-Jan-27 06:50 180 5 5.4-1.0
2015-Jan-27 06:40 200 4 5.4-1.0
2015-Jan-27 06:30 170 5 5.4-1.0
2015-Jan-27 06:20 130 3 5.4-0.0
2015-Jan-27 06:10 100 3 5.4-1.0
2015-Jan-27 06:00 190 2 5.4-1.0
2015-Jan-27 05:50 100 4 5.4-1.0
2015-Jan-27 05:40 070 5 5.4-1.0
2015-Jan-27 05:30 140 4 5.4-0.0
2015-Jan-27 05:20 080 3 5.4-0.0
2015-Jan-27 05:00 130 2 5.4-0.0
2015-Jan-27 04:50 180 2 5.4-0.0
2015-Jan-27 04:40 160 2 gusting 10 5.4-1.0
2015-Jan-27 04:30 180 5 5.4-1.0
2015-Jan-27 04:20 190 4 5.4-2.0
2015-Jan-27 04:10 150 2 5.4-1.0
2015-Jan-27 04:00 180 5 gusting 10 5.4-2.0
2015-Jan-27 03:50 170 2 5.4-2.0
2015-Jan-27 03:40 240 2 5.4-2.0
2015-Jan-27 03:30 200 6 gusting 10 5.4-2.0
2015-Jan-27 03:20 170 4 5.4-3.0
2015-Jan-27 03:10 180 7 gusting 12 5.4-3.0
2015-Jan-27 03:00 220 2 5.4-2.0
2015-Jan-27 02:50 200 2 5.4-3.0
2015-Jan-27 02:40 200 6 gusting 10 5.4-3.0
2015-Jan-27 02:30 200 7 5.4-4.0
2015-Jan-27 02:20 250 2 gusting 10 5.4-3.0
2015-Jan-27 02:10 210 4 5.4-3.0
2015-Jan-27 02:00 210 2 5.4-3.0
2015-Jan-27 01:50 230 4 gusting 11 5.4-4.0
2015-Jan-27 01:40 190 4 5.4-4.0
2015-Jan-27 01:30 180 4 5.4-4.0
2015-Jan-27 01:20 190 5 5.4-4.0
2015-Jan-27 01:10 180 6 gusting 10 5.4-5.0
2015-Jan-27 01:00 180 5 5.4-5.0
2015-Jan-27 00:50 170 5 5.4-5.0
2015-Jan-27 00:40 200 3 5.4-4.0
2015-Jan-27 00:30 180 1 5.4-4.0
2015-Jan-27 00:20 160 2 5.4-5.0
2015-Jan-27 00:10 180 4 5.4-5.0
2015-Jan-27 00:00 190 4 5.4-5.0
2015-Jan-26 23:50 180 3 5.4-5.0
2015-Jan-26 23:40 110 2 5.4-5.0
2015-Jan-26 23:30 280 1 4.9-5.0 Haze.
2015-Jan-26 23:20 170 2 4.9-5.0 Haze.
2015-Jan-26 23:10 180 3 4.9-5.0 Haze.
2015-Jan-26 23:00 230 2 4.9-5.0 Haze.
2015-Jan-26 22:50 190 4 4.9-5.0 Haze.
2015-Jan-26 22:40 180 5 4.9-5.0 Haze.
2015-Jan-26 22:30 200 4 4.9-5.0 Haze.
2015-Jan-26 22:20 180 1 4.3-5.0 Haze.
2015-Jan-26 22:10 160 1 4.3-5.0 Haze.
2015-Jan-26 22:00 220 1 3.2-4.0 Haze.
2015-Jan-26 21:50 200 1 3.2-4.0 Haze.
2015-Jan-26 21:40 060 1 3.2-4.0 Haze.
2015-Jan-26 21:30 190 1 3.2-4.0 Haze.
2015-Jan-26 21:20 170 4 3.2-4.0 Haze.
2015-Jan-26 21:10 200 2 3.2-3.0 Haze.
2015-Jan-26 20:50 180 3 3.2-3.0 Haze.
2015-Jan-26 20:40 090 2 3.2-3.0 Haze.
2015-Jan-26 20:30 100 2 3.2-3.0 Haze.
2015-Jan-26 20:20 110 2 3.2-3.0 Haze.
2015-Jan-26 20:10 100 3 3.2-3.0 Haze.
2015-Jan-26 20:00 110 3 3.2-3.0 Haze.
2015-Jan-26 19:50 110 4 3.2-2.0 Haze.
2015-Jan-26 19:40 110 4 3.2-2.0 Haze.
2015-Jan-26 19:30 110 2 3.2-2.0 Haze.
2015-Jan-26 19:20 110 4 3.2-2.0 Haze.
2015-Jan-26 19:10 110 4 3.2-2.0 Haze.
2015-Jan-26 19:00 110 5 3.2-2.0 Haze.
2015-Jan-26 18:50 120 3 3.2-2.0 Haze.
2015-Jan-26 18:40 120 3 3.2-2.0 Haze.
2015-Jan-26 18:30 100 2 3.2-2.0 Haze.
2015-Jan-26 18:20 100 2 2.6-1.0 Haze.
2015-Jan-26 18:10 110 2 2.6-1.0 Haze.
2015-Jan-26 18:00 100 2 3.2-1.0 Haze.
2015-Jan-26 17:50 120 1 3.2-1.0 Haze.
2015-Jan-26 17:40 080 1 3.2-1.0 Haze.
2015-Jan-26 17:30 080 1 3.2-1.0 Haze.
2015-Jan-26 17:20 110 2 2.6-1.0 Haze.
2015-Jan-26 17:10 090 3 3.2-0.0 Haze.
2015-Jan-26 17:00 100 3 3.2-0.0 Haze.
2015-Jan-26 16:50 110 4 2.6-0.0 Haze.
2015-Jan-26 16:40 090 5 2.6-0.0 Haze.
2015-Jan-26 16:30 090 4 2.6-0.0 Haze.
2015-Jan-26 16:20 090 4 2.2-0.0 Haze.
2015-Jan-26 16:10 100 3 2.6 1.0 Haze.
2015-Jan-26 16:00 120 2 2.2 1.0 Haze.
2015-Jan-26 15:50 090 2 2.2-0.0 Haze.
2015-Jan-26 15:40 080 2 2.2-0.0 Haze.
2015-Jan-26 15:30 080 2 2.2-0.0 Haze.
2015-Jan-26 15:20 090 2 2.2-0.0 Haze.
2015-Jan-26 15:10 080 2 2.2-0.0 Haze.
2015-Jan-26 15:00 090 2 2.2-0.0 Haze.
2015-Jan-26 14:50 080 4 2.2-0.0 Haze.
2015-Jan-26 14:40 090 2 2.2 1.0 Haze.
2015-Jan-26 14:20 100 2 2.2 1.0 Haze.
2015-Jan-26 14:10 070 2 2.2 1.0 Haze.
2015-Jan-26 14:00 100 2 2.6 1.0 Haze.
2015-Jan-26 13:50 100 3 2.6 1.0 Haze.
2015-Jan-26 13:40 080 2 2.6 1.0 Haze.
2015-Jan-26 13:30 090 2 2.2 1.0 Haze.
2015-Jan-26 13:20 100 2 1.7-0.0 Haze.
2015-Jan-26 13:10 100 2 1.7-0.0 Haze.
2015-Jan-26 13:00 080 2 2.2 1.0 Haze.
2015-Jan-26 12:50 120 1 2.2 1.0 Haze.
2015-Jan-26 12:40 110 1 2.2 1.0 Haze.
2015-Jan-26 12:30 100 2 2.2 1.0 Haze.
2015-Jan-26 12:20 110 2 2.2 1.0 Haze.
2015-Jan-26 12:10 070 1 2.2 1.0 Haze.
2015-Jan-26 12:00 060 1 2.2 1.0 Haze.
2015-Jan-26 11:50 210 1 2.2 1.0 Haze.
2015-Jan-26 11:40 120 1 2.6 1.0 Haze.
2015-Jan-26 11:30 190 1 2.6 1.0 Haze.
2015-Jan-26 11:20 200 3 2.6 1.0 Haze.
2015-Jan-26 11:10 170 3 2.6 1.0 Haze.
2015-Jan-26 11:00 210 2 2.6 1.0 Haze.
2015-Jan-26 10:50 190 3 2.6 1.0 Haze.
2015-Jan-26 10:40 200 2 2.6 2.0 Haze.
2015-Jan-26 10:30 180 2 2.6 2.0 Haze.
2015-Jan-26 10:20 130 2 2.6 2.0 Haze.
2015-Jan-26 10:10 110 4 2.6 2.0 Haze.
2015-Jan-26 10:00 070 2 2.6 2.0 Haze.
2015-Jan-26 09:50 080 2 3.2 3.0 Haze.
2015-Jan-26 09:40 120 2 3.2 3.0 Haze.
2015-Jan-26 09:30 090 2 2.6 3.0 Haze.
2015-Jan-26 09:20 240 1 2.6 3.0 Haze.
2015-Jan-26 09:10 2.6 4.0 Haze.
2015-Jan-26 09:00 210 2 2.6 4.0 Haze.
2015-Jan-26 08:50 250 2 2.6 4.0 Haze.
2015-Jan-26 08:40 240 1 2.6 4.0 Haze.
2015-Jan-26 08:30 190 4 2.6 5.0 Haze.
2015-Jan-26 08:20 170 5 4.3 5.0 Haze.
2015-Jan-26 08:10 180 6 4.3 5.0 Haze.
2015-Jan-26 08:00 180 3 4.3 6.0 Haze.
2015-Jan-26 07:50 140 3 4.9 6.0 Haze.
2015-Jan-26 07:40 100 4 4.3 6.0 Haze.
2015-Jan-26 07:30 100 3 5.4 6.0
2015-Jan-26 07:20 100 3 5.4 6.0
2015-Jan-26 07:10 110 2 5.4 7.0
2015-Jan-26 07:00 110 1 5.4 7.0
2015-Jan-26 06:50 120 2 5.4 6.0
2015-Jan-26 06:40 100 3 5.4 6.0
2015-Jan-26 06:30 080 3 5.4 6.0
2015-Jan-26 06:20 080 1 5.4 6.0
2015-Jan-26 06:10 110 3 5.4 6.0
2015-Jan-26 06:00 090 2 4.3 6.0 Haze.
2015-Jan-26 05:50 090 3 3.2 6.0 Haze.
2015-Jan-26 05:40 080 2 4.3 6.0 Haze.
2015-Jan-26 05:30 110 1 4.9 6.0 Haze.
2015-Jan-26 05:20 180 1 4.9 6.0 Haze.
2015-Jan-26 05:10 280 2 3.2 6.0 Haze.
2015-Jan-26 05:00 180 3 3.2 6.0 Haze.
2015-Jan-26 04:50 200 4 4.3 6.0 Haze.
2015-Jan-26 04:40 180 4 4.3 6.0 Haze.
2015-Jan-26 04:30 180 2 3.2 6.0 Haze.
2015-Jan-26 04:20 180 4 3.2 6.0 Haze.
2015-Jan-26 04:10 180 4 4.3 6.0 Haze.
2015-Jan-26 04:00 180 6 4.9 6.0 Haze.
2015-Jan-26 03:50 180 4 4.9 6.0 Haze.
2015-Jan-26 03:40 190 4 3.2 6.0 Haze.
2015-Jan-26 03:30 180 2 2.2 6.0 Haze.
2015-Jan-26 03:20 280 1 1.7 6.0 Haze.
2015-Jan-26 03:10 330 3 2.2 6.0 Haze.
2015-Jan-26 03:00 230 3 2.2 6.0 Haze.
2015-Jan-26 02:50 010 1 1.7 6.0 Haze.
2015-Jan-26 02:40 020 2 1.5 5.0 Haze.
2015-Jan-26 02:30 110 2 gusting 10 1.7 5.0 Haze.
2015-Jan-26 02:20 090 3 1.7 5.0 Haze.
2015-Jan-26 02:10 100 2 2.2 5.0 Haze.
2015-Jan-26 02:00 060 1 1.7 4.0 Haze.
2015-Jan-26 01:50 070 2 2.2 4.0 Haze.
2015-Jan-26 01:40 330 1 2.2 4.0 Mist.
2015-Jan-26 01:30 2.2 4.0 Mist.
2015-Jan-26 01:20 250 2 2.2 4.0 Mist.
2015-Jan-26 01:10 250 2 2.2 4.0 Mist.
2015-Jan-26 01:00 210 2 2.2 3.0 Mist.
2015-Jan-26 00:50 210 1 1.7 4.0 Mist.
2015-Jan-26 00:40 200 1 1.7 3.0 Mist.
2015-Jan-26 00:30 210 1 1.7 3.0 Mist.
2015-Jan-26 00:20 210 1 1.7 3.0 Mist.
2015-Jan-26 00:10 150 2 1.5 3.0 Mist.
2015-Jan-26 00:00 190 1 1.5 3.0 Mist.
2015-Jan-25 23:50 150 3 1.7 3.0 Mist.
2015-Jan-25 23:40 150 2 1.5 3.0 Mist.
2015-Jan-25 23:30 150 2 1.1 3.0 Mist.
2015-Jan-25 23:20 170 2 0.9 3.0 Mist.
2015-Jan-25 23:10 150 2 1.1 3.0 Mist.
2015-Jan-25 23:00 360 3 1.1 3.0 Mist.
2015-Jan-25 22:50 160 2 1.1 3.0 Mist.
2015-Jan-25 22:40 130 3 0.9 3.0 Mist.
2015-Jan-25 22:30 140 3 0.9 3.0 Mist.
2015-Jan-25 22:20 140 2 0.6 3.0 Mist.
2015-Jan-25 22:10 120 3 0.4 3.0 Fog.
2015-Jan-25 22:00 170 3 0.2 3.0 Fog.
2015-Jan-25 21:50 170 3 0.2 3.0 Fog.
2015-Jan-25 21:40 130 3 0.2 3.0 Fog.
2015-Jan-25 21:30 120 3 3.0 Light rain showers. Fog.
2015-Jan-25 21:20 160 3 3.0 Light rain showers. Fog.
2015-Jan-25 21:10 200 1 3.0 Light rain showers. Fog.
2015-Jan-25 21:00 020 3 0.2 3.0 Light rain showers. Fog.
2015-Jan-25 20:50 150 3 3.0 Light rain showers. Fog.
2015-Jan-25 20:40 360 3 0.2 3.0 Light rain. Fog.
2015-Jan-25 20:30 090 3 2.0 Light rain showers. Fog.
2015-Jan-25 20:20 090 3 2.0 Light rain showers. Fog.
2015-Jan-25 20:10 030 3 2.0 Light rain showers. Fog.
2015-Jan-25 20:00 020 3 3.0 Light rain showers. Fog.
2015-Jan-25 19:50 080 2 3.0 Light rain showers. Fog.
2015-Jan-25 19:40 300 2 3.0 Light rain showers. Fog.
2015-Jan-25 19:30 200 2 3.0 Fog.
2015-Jan-25 19:20 140 4 0.2 3.0 Fog.
2015-Jan-25 19:10 100 4 0.2 3.0 Fog.
2015-Jan-25 19:00 100 3 0.2 3.0 Fog.
2015-Jan-25 18:50 090 4 0.2 3.0 Fog.
2015-Jan-25 18:40 190 1 0.2 2.0 Fog.
2015-Jan-25 18:30 120 3 2.0 Fog.
2015-Jan-25 18:20 350 3 0.2 3.0 Fog.
2015-Jan-25 18:10 300 2 0.4 3.0 Fog.
2015-Jan-25 18:00 110 5 0.2 3.0 Light rain showers. Fog.
2015-Jan-25 17:50 070 2 0.2 3.0 Light rain showers. Fog.
2015-Jan-25 17:40 090 3 0.2 3.0 Light rain showers. Fog.
2015-Jan-25 17:30 020 5 0.2 3.0 Light rain showers. Fog.
2015-Jan-25 17:20 040 4 0.2 3.0 Light rain showers. Fog.
2015-Jan-25 17:10 160 3 0.2 3.0 Fog.
2015-Jan-25 17:00 110 4 0.2 3.0 Light rain. Fog.
2015-Jan-25 16:50 100 5 2.0 Light rain. Fog.
2015-Jan-25 16:40 200 3 2.0 Light rain. Fog.
2015-Jan-25 16:30 260 2 2.0 Light rain. Fog.
2015-Jan-25 16:20 210 2 0.2 3.0 Light drizzle. Fog.
2015-Jan-25 16:10 210 2 0.2 3.0 Light drizzle. Fog.
2015-Jan-25 16:00 200 3 0.2 3.0 Light drizzle. Fog.
2015-Jan-25 15:50 160 3 0.2 3.0 Light drizzle. Fog.
2015-Jan-25 15:40 300 2 0.4 3.0 Light drizzle. Fog.
2015-Jan-25 15:30 140 2 0.2 3.0 Light drizzle. Fog.
2015-Jan-25 15:20 150 2 0.2 3.0 Light drizzle. Fog.
2015-Jan-25 15:10 170 2 0.4 2.0 Light drizzle. Fog.
2015-Jan-25 15:00 190 2 0.4 3.0 Light drizzle. Fog.
2015-Jan-25 14:50 190 2 0.2 2.0 Light drizzle. Fog.
2015-Jan-25 14:40 210 2 gusting 33 0.2 2.0 Light drizzle. Fog.
2015-Jan-25 14:30 190 5 gusting 20 0.2 2.0 Light rain. Fog.
2015-Jan-25 14:20 170 3 0.2 2.0 Light rain. Fog.
2015-Jan-25 14:10 160 4 0.2 3.0 Light rain. Fog.
2015-Jan-25 14:00 180 4 gusting 14 0.2 3.0 Light rain. Fog.
2015-Jan-25 13:50 200 4 0.2 3.0 Light rain. Fog.
2015-Jan-25 13:40 200 4 0.2 3.0 Light drizzle. Fog.
2015-Jan-25 13:30 200 4 0.2 3.0 Light drizzle. Fog.
2015-Jan-25 13:20 210 3 0.2 2.0 Light drizzle. Fog.
2015-Jan-25 13:10 200 4 0.2 2.0 Light rain. Fog.
2015-Jan-25 13:00 200 4 0.4 3.0 Light rain. Fog.
2015-Jan-25 12:50 190 5 0.4 3.0 Light rain. Fog.
2015-Jan-25 12:40 190 5 0.4 2.0 Light rain. Fog.
2015-Jan-25 12:30 190 3 0.4 2.0 Light rain. Fog.
2015-Jan-25 12:20 180 5 0.4 3.0 Light rain. Mist.
2015-Jan-25 12:10 200 3 0.4 2.0 Light rain. Mist.
2015-Jan-25 12:00 170 5 0.4 3.0 Drizzle. Mist.